Home   Weather   Bambari   Past weeks

Flag for Central African Republic Past Weather in Bambari, Central African Republic — Yesterday and Last 2 Weeks

73 °F

Thunderstorms. Passing clouds.

Feels Like: 70 °F
Forecast: 70 / 92 °F
Wind: 2 mph from North

Location: Bangui Airport

Current Time: Oct 23, 2016 at 7:04:51 PM

Latest Report: Oct 23, 2016 at 6:00 PM

Visibility: N/A

Pressure: 29.83 "Hg

Humidity: 94%

Dew Point: 72 °F

Location of BambariLocation

Past Weather in Bambari — Graph


Bambari Temperature Yesterday

Maximum temperature yesterday: 91 °F (at 2:00 PM)
Minimum temperature yesterday: 72 °F (at 1:00 AM)
Average temperature yesterday: 80 °F

High & Low Weather Summary for the Past Weeks

High95 °F (Oct 13, 2:00 PM)100% (Oct 8, 11:00 PM)29.95 "Hg (Oct 8, 11:00 PM)
Low68 °F (Oct 17, 4:00 AM)49% (Oct 14, 2:00 PM)29.74 "Hg (Oct 8, 5:00 PM)
Average78 °F84%29.86 "Hg
* Reported Oct 8 5:00 PM — Oct 23 5:00 PM, Bambari, Weather by CustomWeather, © 2016

Note: Actual official high and low records may vary slightly from our data, if they occured in-between our weather recording intervals... More about our weather records


Bambari Weather History for the Previous 24 Hours

Scroll right to see more
Time TempWeatherWind HumidityBarometerVisibility
5:00 PM
Sun, Oct 23
73 °FThunderstorms. Passing clouds.6 mph100%29.80 "HgN/A
4:00 PM73 °FThunderstorms. Passing clouds.No wind94%29.77 "HgN/A
3:00 PM72 °FThunderstorms. Scattered clouds.6 mph100%29.77 "Hg5 mi
2:00 PM72 °FThunderstorms. Partly sunny.7 mph94%29.80 "Hg2 mi
1:00 PM95 °FScattered clouds.5 mph53%29.80 "HgN/A
12:00 PM93 °FPassing clouds.2 mph56%29.83 "HgN/A
11:00 AM90 °FPassing clouds.3 mph67%29.89 "Hg4 mi
10:00 AM84 °FFog.No wind79%29.92 "Hg2 mi
9:00 AM79 °FFog.No wind89%29.92 "Hg2 mi
8:00 AM77 °FPassing clouds.No wind94%29.92 "Hg4 mi
7:00 AM75 °FPassing clouds.No wind94%29.89 "Hg5 mi
6:00 AM73 °FPassing clouds.5 mph100%29.89 "Hg5 mi
5:00 AM73 °FPassing clouds.3 mph100%29.89 "Hg5 mi
4:00 AM73 °FClear.3 mph100%29.86 "Hg5 mi
3:00 AM75 °FClear.5 mph94%29.86 "Hg5 mi
2:00 AM73 °FClear.5 mph100%29.86 "Hg5 mi
1:00 AM75 °FClear.3 mph94%29.86 "Hg5 mi
12:00 AM75 °FClear.3 mph94%29.89 "Hg5 mi
11:00 PM
Sat, Oct 22
75 °FPassing clouds.7 mph100%29.89 "Hg5 mi
10:00 PM77 °FPassing clouds.3 mph94%29.89 "Hg5 mi
9:00 PM79 °FPassing clouds.1 mph94%29.89 "Hg5 mi
8:00 PM79 °FPassing clouds.2 mph94%29.89 "Hg5 mi
7:00 PM82 °FThunderstorms. Passing clouds.No wind79%29.86 "Hg5 mi
Weather by CustomWeather, © 2016

See weather overviewHow to use our weather pages